[[{"header":{"parameterUnit":"m.s-1","parameterCategory":1,"la1":30.2991,"la2":30.254,"lo1":-89.0895,"lo2":-89.0444,"dy":0.0017,"dx":0.0017,"nx":28,"ny":28,"refTime":"2024-07-11T03:00:00:Z","depth":0,"parameterNumber":2,"parameterNumberName":"U-component_of_WINDS"},"data":[0,0,0,0,0,0,0,0,0,0,0,0,0,0,0,0,0,0,0,0,0,0,0,0,0,0,0,0,0,0,0,0,0,0,0,0,0,0,0,0,0,0,0,0,0,0,0,0,0,0,0,0,0,0,0,0,0,0,-0.8801,-0.8801,0,-0.8787,-0.8787,-0.8787,-0.8752,-0.8751,-0.875,-0.8749,-0.8736,-0.8736,-0.8736,0,0,0,0,0,0,0,0,0,0,0,0,0,-0.8797,-0.8797,-0.8801,-0.8801,-0.88,-0.8787,-0.8787,-0.8787,-0.8752,-0.8751,-0.875,-0.8749,-0.8736,-0.8736,-0.8736,0,0,0,0,0,0,0,0,0,0,0,0,0,-0.8792,-0.8797,-0.8801,-0.8781,-0.8779,-0.8787,-0.8787,-0.8787,-0.8752,-0.8751,-0.875,-0.8749,-0.8735,-0.8736,-0.8736,-0.8762,0,0,-0.8738,-0.8738,0,0,0,0,0,0,0,0,-0.8793,-0.8793,-0.8784,-0.8783,-0.8781,-0.877,-0.8781,-0.8779,-0.8752,-0.8762,-0.8749,-0.8748,-0.8748,-0.8747,-0.8747,-0.8761,-0.8761,-0.8738,-0.8738,-0.8738,-0.8739,0,0,0,0,0,0,0,-0.8793,-0.8793,-0.8795,-0.8784,-0.8782,-0.8773,-0.8772,-0.878,-0.8762,-0.8761,-0.8759,-0.8758,-0.8747,-0.8747,-0.8747,-0.8761,-0.8738,-0.8738,-0.8739,-0.8739,-0.8796,-0.8797,0,0,0,0,0,0,-0.8796,-0.8793,-0.8796,-0.8795,-0.8784,-0.8774,-0.8772,-0.8774,-0.8761,-0.8758,-0.8759,-0.8756,-0.8747,-0.8746,-0.8746,-0.8776,-0.8738,-0.8739,-0.8739,-0.8795,-0.8797,-0.8798,0,0,0,0,0,0,-0.8796,-0.8797,-0.8796,-0.8794,-0.8793,-0.8776,-0.8778,-0.8775,-0.8775,-0.8759,-0.8756,-0.8762,-0.8746,-0.8745,-0.8759,-0.8775,-0.8739,-0.874,-0.8794,-0.8796,-0.8797,-0.8836,0,0,0,0,0,0,-0.8796,-0.8797,-0.8806,-0.8794,-0.8793,-0.8809,-0.8779,-0.8775,-0.8776,-0.8772,-0.8762,-0.8759,-0.8745,-0.8758,-0.8759,-0.8775,-0.874,-0.8792,-0.8794,-0.8797,-0.8834,-0.8839,-0.8844,0,0,0,0,0,-0.8796,-0.8818,-0.8807,-0.8807,-0.8805,-0.881,-0.881,-0.8793,-0.8777,-0.8787,-0.8777,-0.8759,-0.8773,-0.876,-0.8761,-0.8777,-0.8791,-0.8794,-0.8796,-0.8831,-0.8838,-0.8844,0,0,0,0,0,0,-0.8832,-0.8816,-0.8804,-0.8822,-0.8818,-0.8804,-0.8816,-0.8801,-0.8801,-0.8798,-0.8777,-0.8775,-0.8791,-0.8785,-0.8771,-0.8802,-0.8779,-0.8782,-0.8805,-0.8812,-0.8817,-0.8819,-0.874,0,0,0,0,0,-0.8842,-0.8848,-0.8833,-0.8851,-0.8849,-0.8833,-0.8835,-0.8822,-0.8817,-0.8815,-0.8806,-0.8802,-0.8805,-0.8808,-0.881,-0.8832,-0.883,-0.8844,-0.885,-0.8854,-0.8857,-0.887,-0.8876,-0.8807,-0.8807,-0.8807,0,0,-0.8863,-0.8855,-0.886,-0.8858,-0.8853,-0.886,-0.8832,-0.884,-0.8845,-0.8816,-0.8829,-0.8822,-0.8816,-0.8834,-0.8841,-0.883,-0.8876,-0.8857,-0.8861,-0.8862,-0.8873,-0.888,-0.8885,-0.8809,-0.8808,-0.8808,0,0,-0.8905,-0.8899,-0.8913,-0.8909,-0.8903,-0.8892,-0.8895,-0.8884,-0.8879,-0.8891,-0.887,-0.8875,-0.8881,-0.8878,-0.8878,-0.8919,-0.8903,-0.892,-0.8949,-0.8961,-0.8966,-0.8971,-0.8987,-0.8993,-0.8923,-0.8923,-0.8923,0,-0.8932,-0.8942,-0.8923,-0.8933,-0.8933,-0.8907,-0.8922,-0.8919,-0.8913,-0.8914,-0.8901,-0.8909,-0.8903,-0.892,-0.8931,-0.893,-0.8934,-0.8922,-0.8967,-0.8971,-0.8976,-0.8991,-0.8997,-0.8925,-0.8925,-0.8925,-0.8925,0,-0.8975,-0.8982,-0.8995,-0.8991,-0.8992,-0.9004,-0.8988,-0.8991,-0.8979,-0.8969,-0.8982,-0.8974,-0.8975,-0.8978,-0.8965,-0.8994,-0.8987,-0.8971,-0.8948,-0.8985,-0.8999,-0.9004,-0.8929,-0.8928,-0.8927,-0.8927,0,0,-0.904,-0.9026,-0.9031,-0.9029,-0.902,-0.9025,-0.9036,-0.9037,-0.9041,-0.9038,-0.9048,-0.9053,-0.9039,-0.9038,-0.9025,-0.9035,-0.907,-0.9018,-0.9017,-0.9029,-0.9102,-0.9116,-0.9123,-0.9059,-0.906,-0.9061,-0.9103,0,-0.908,-0.9099,-0.9083,-0.9105,-0.9112,-0.9088,-0.9098,-0.9093,-0.9085,-0.9089,-0.908,-0.9085,-0.9064,-0.9064,-0.9073,-0.9064,-0.9085,-0.906,-0.9069,-0.9069,-0.9072,-0.9129,-0.9143,-0.9184,-0.9108,-0.9109,-0.911,0,-0.913,-0.913,-0.9153,-0.9143,-0.9145,-0.9155,-0.9155,-0.9159,-0.9154,-0.9147,-0.9147,-0.9131,-0.9142,-0.9118,-0.9134,-0.9118,-0.912,-0.9116,-0.9117,-0.9118,-0.9093,-0.9133,-0.9196,-0.9203,-0.9118,-0.9117,-0.9117,0,-0.9176,-0.9182,-0.9196,-0.9195,-0.9184,-0.9192,-0.9187,-0.9181,-0.9183,-0.9183,-0.9184,-0.9185,-0.9186,-0.9187,-0.9172,-0.9156,-0.919,-0.9165,-0.9185,-0.9186,-0.9194,-0.9194,-0.9259,-0.9194,-0.9193,-0.9193,-0.9193,0,-0.9224,-0.9239,-0.9217,-0.9226,-0.9243,-0.9224,-0.9241,-0.9234,-0.9229,-0.9237,-0.9216,-0.9223,-0.9203,-0.9208,-0.9197,-0.9212,-0.9212,-0.9207,-0.9204,-0.921,-0.9211,-0.9212,-0.9209,-0.9195,-0.9195,-0.9194,-0.9194,0,-0.9279,-0.9264,-0.9279,-0.9268,-0.9265,-0.9278,-0.9268,-0.9276,-0.9266,-0.9277,-0.9278,-0.9263,-0.9268,-0.9253,-0.9256,-0.9249,-0.9271,-0.9263,-0.9273,-0.9271,-0.9292,-0.9291,-0.9362,-0.9371,-0.9298,-0.9299,-0.93,0,-0.931,-0.9322,-0.9311,-0.9315,-0.9312,-0.9318,-0.932,-0.9302,-0.9305,-0.9301,-0.931,-0.9314,-0.9316,-0.9326,-0.9316,-0.9318,-0.9311,-0.9335,-0.9311,-0.9317,-0.9313,-0.9313,-0.9314,-0.9341,-0.9342,-0.9342,-0.9343,0,-0.9369,-0.9361,-0.9365,-0.9366,-0.9369,-0.937,-0.9368,-0.9373,-0.9353,-0.9358,-0.9364,-0.9365,-0.9369,-0.9374,-0.9374,-0.937,-0.9354,-0.9351,-0.9356,-0.9362,-0.9368,-0.9366,-0.9288,-0.9349,-0.9349,-0.9348,-0.9348,-0.9348,-0.9413,-0.9423,-0.9418,-0.9423,-0.942,-0.9419,-0.9427,-0.9418,-0.9423,-0.9425,-0.9413,-0.9422,-0.9417,-0.9416,-0.9414,-0.942,-0.9409,-0.9416,-0.9418,-0.942,-0.9425,-0.9366,-0.942,-0.942,-0.942,-0.9419,-0.9419,0,-0.9472,-0.9467,-0.9472,-0.9471,-0.9476,-0.946,-0.9458,-0.9462,-0.947,-0.9467,-0.947,-0.9477,-0.9482,-0.9472,-0.9475,-0.9482,-0.9475,-0.9483,-0.9483,-0.9483,-0.9434,-0.943,-0.9489,-0.9489,-0.9489,-0.9489,-0.9489,-0.9489,-0.9502,-0.9518,-0.951,-0.9524,-0.9519,-0.9528,-0.9528,-0.9528,-0.9526,-0.9535,-0.9539,-0.9532,-0.9526,-0.9529,-0.9533,-0.9529,-0.9532,-0.9544,-0.9538,-0.9493,-0.9486,-0.948,-0.9476,-0.9544,-0.9544,-0.9587,-0.9587,-0.9588]},{"header":{"parameterUnit":"m.s-1","parameterCategory":1,"la1":30.2991,"la2":30.254,"lo1":-89.0895,"lo2":-89.0444,"dy":0.0017,"dx":0.0017,"nx":28,"ny":28,"refTime":"2024-07-11T03:00:00:Z","depth":0,"parameterNumber":3,"parameterNumberName":"V-component_of_WINDS"},"data":[0,0,0,0,0,0,0,0,0,0,0,0,0,0,0,0,0,0,0,0,0,0,0,0,0,0,0,0,0,0,0,0,0,0,0,0,0,0,0,0,0,0,0,0,0,0,0,0,0,0,0,0,0,0,0,0,0,0,-0.673,-0.6731,0,-0.6777,-0.6778,-0.6778,-0.6795,-0.6795,-0.6795,-0.6795,-0.6843,-0.6845,-0.6846,0,0,0,0,0,0,0,0,0,0,0,0,0,-0.6655,-0.6656,-0.673,-0.6731,-0.6731,-0.6777,-0.6778,-0.6778,-0.6795,-0.6795,-0.6795,-0.6795,-0.6843,-0.6845,-0.6846,0,0,0,0,0,0,0,0,0,0,0,0,0,-0.6693,-0.6657,-0.673,-0.6745,-0.6747,-0.6777,-0.6778,-0.6779,-0.6795,-0.6795,-0.6795,-0.6794,-0.6842,-0.6845,-0.6847,-0.6865,0,0,-0.6853,-0.6854,0,0,0,0,0,0,0,0,-0.6691,-0.6696,-0.6742,-0.6744,-0.6746,-0.678,-0.6769,-0.6808,-0.6795,-0.6777,-0.6795,-0.6794,-0.6823,-0.6826,-0.6836,-0.6868,-0.687,-0.6854,-0.6855,-0.6856,-0.6856,0,0,0,0,0,0,0,-0.6689,-0.6694,-0.6749,-0.6743,-0.6745,-0.675,-0.6755,-0.6777,-0.6801,-0.6778,-0.678,-0.6785,-0.6824,-0.6834,-0.6837,-0.6871,-0.6854,-0.6855,-0.6857,-0.6858,-0.6921,-0.6921,0,0,0,0,0,0,-0.6683,-0.6692,-0.6747,-0.675,-0.6717,-0.6751,-0.6757,-0.6769,-0.68,-0.6805,-0.6785,-0.6786,-0.683,-0.6835,-0.6839,-0.6864,-0.6856,-0.6858,-0.6859,-0.6921,-0.6921,-0.6922,0,0,0,0,0,0,-0.6682,-0.6688,-0.6745,-0.6721,-0.6729,-0.6753,-0.6767,-0.677,-0.6781,-0.6806,-0.681,-0.6791,-0.683,-0.6836,-0.6859,-0.6866,-0.6859,-0.6861,-0.692,-0.6921,-0.6921,-0.6913,0,0,0,0,0,0,-0.6679,-0.6687,-0.6694,-0.6721,-0.673,-0.6764,-0.6767,-0.6772,-0.6784,-0.6785,-0.6812,-0.6816,-0.683,-0.6856,-0.6861,-0.6869,-0.6863,-0.692,-0.6921,-0.6921,-0.6913,-0.6913,-0.6913,0,0,0,0,0,-0.6677,-0.669,-0.6695,-0.6701,-0.674,-0.6765,-0.677,-0.6785,-0.6785,-0.6792,-0.6809,-0.6816,-0.6864,-0.6858,-0.6864,-0.6872,-0.6919,-0.692,-0.6921,-0.6913,-0.6913,-0.6913,0,0,0,0,0,0,-0.6663,-0.6694,-0.6699,-0.6722,-0.6741,-0.6767,-0.6777,-0.6785,-0.6804,-0.6804,-0.6823,-0.6829,-0.6851,-0.6864,-0.6856,-0.6893,-0.6892,-0.6894,-0.6883,-0.6884,-0.6884,-0.6881,-0.6864,0,0,0,0,0,-0.6663,-0.668,-0.6706,-0.6724,-0.6733,-0.6753,-0.6765,-0.6775,-0.6795,-0.6803,-0.6821,-0.684,-0.686,-0.6873,-0.6892,-0.6914,-0.6921,-0.6923,-0.6924,-0.6924,-0.6926,-0.6939,-0.6941,-0.6924,-0.6924,-0.6924,0,0,-0.6662,-0.6681,-0.6691,-0.6721,-0.6737,-0.6755,-0.676,-0.6779,-0.6793,-0.6806,-0.6829,-0.6843,-0.6866,-0.6889,-0.69,-0.6901,-0.6932,-0.6925,-0.6925,-0.6927,-0.694,-0.6942,-0.6943,-0.6925,-0.6925,-0.6925,0,0,-0.6671,-0.6687,-0.6703,-0.6719,-0.6743,-0.6757,-0.676,-0.6786,-0.6796,-0.6819,-0.683,-0.6847,-0.688,-0.6896,-0.6909,-0.6924,-0.6932,-0.693,-0.6932,-0.6945,-0.6946,-0.6948,-0.6954,-0.6956,-0.6931,-0.6931,-0.6931,0,-0.6668,-0.6695,-0.6711,-0.673,-0.6743,-0.6756,-0.6773,-0.6788,-0.6817,-0.6826,-0.6826,-0.6868,-0.6884,-0.6912,-0.6916,-0.6925,-0.6931,-0.6927,-0.6945,-0.6946,-0.6948,-0.6954,-0.6956,-0.6931,-0.6931,-0.6931,-0.6931,0,-0.669,-0.6709,-0.672,-0.6748,-0.6762,-0.678,-0.6799,-0.6811,-0.6821,-0.6834,-0.6859,-0.6878,-0.6902,-0.691,-0.6918,-0.6939,-0.6938,-0.6941,-0.6941,-0.6949,-0.6955,-0.6958,-0.6931,-0.6931,-0.6931,-0.6931,0,0,-0.6692,-0.6728,-0.6732,-0.6745,-0.6773,-0.6788,-0.6806,-0.683,-0.6841,-0.686,-0.6877,-0.6905,-0.6908,-0.6922,-0.6933,-0.6944,-0.6956,-0.6946,-0.6947,-0.6948,-0.6981,-0.6979,-0.6982,-0.6961,-0.6962,-0.6962,-0.6979,0,-0.6705,-0.6739,-0.6754,-0.6781,-0.6799,-0.6812,-0.6829,-0.6847,-0.6861,-0.6878,-0.6893,-0.6913,-0.6915,-0.6924,-0.6936,-0.6952,-0.6963,-0.6951,-0.6978,-0.6978,-0.6973,-0.6985,-0.6983,-0.6998,-0.6982,-0.6982,-0.6983,0,-0.6724,-0.6744,-0.6773,-0.6799,-0.6807,-0.6822,-0.6845,-0.6862,-0.6883,-0.6892,-0.6908,-0.6919,-0.6939,-0.6937,-0.6966,-0.6958,-0.6969,-0.6979,-0.698,-0.6984,-0.6982,-0.699,-0.7003,-0.7006,-0.6986,-0.6986,-0.6986,0,-0.6724,-0.6758,-0.678,-0.6791,-0.6821,-0.6831,-0.6844,-0.6866,-0.6879,-0.6899,-0.6908,-0.6931,-0.6943,-0.696,-0.6976,-0.6973,-0.7004,-0.7003,-0.7013,-0.7013,-0.702,-0.7019,-0.7036,-0.7025,-0.7025,-0.7025,-0.7025,0,-0.6737,-0.6755,-0.678,-0.6794,-0.6814,-0.6831,-0.6851,-0.6865,-0.6884,-0.6901,-0.6913,-0.6929,-0.6949,-0.6968,-0.6981,-0.7003,-0.7008,-0.7017,-0.702,-0.7016,-0.7015,-0.7025,-0.7025,-0.7026,-0.7026,-0.7026,-0.7026,0,-0.674,-0.6758,-0.6783,-0.681,-0.6817,-0.6831,-0.6854,-0.6868,-0.6882,-0.6904,-0.691,-0.6932,-0.6955,-0.6972,-0.7001,-0.701,-0.7034,-0.7037,-0.7027,-0.7029,-0.7038,-0.7037,-0.7063,-0.7067,-0.7052,-0.7052,-0.7052,0,-0.6748,-0.6762,-0.6791,-0.6803,-0.6816,-0.6836,-0.685,-0.6867,-0.6881,-0.6907,-0.6918,-0.6942,-0.6961,-0.6996,-0.7015,-0.7038,-0.7042,-0.705,-0.7046,-0.7042,-0.7044,-0.7043,-0.7045,-0.705,-0.7051,-0.7051,-0.7051,0,-0.676,-0.6769,-0.6788,-0.6811,-0.6828,-0.6846,-0.6866,-0.6875,-0.6896,-0.6911,-0.6935,-0.695,-0.698,-0.7003,-0.7028,-0.7041,-0.705,-0.7052,-0.7055,-0.7052,-0.7046,-0.705,-0.7029,-0.7051,-0.7051,-0.7051,-0.7051,-0.7051,-0.6767,-0.678,-0.6803,-0.6825,-0.6841,-0.6859,-0.6873,-0.689,-0.6909,-0.6935,-0.6944,-0.6968,-0.699,-0.7024,-0.7038,-0.7058,-0.7058,-0.7063,-0.7065,-0.7066,-0.7066,-0.7042,-0.7062,-0.7062,-0.7062,-0.7062,-0.7062,0,-0.6781,-0.6796,-0.6816,-0.6842,-0.686,-0.6866,-0.6888,-0.6902,-0.6923,-0.6943,-0.6962,-0.6989,-0.7012,-0.7032,-0.7056,-0.7068,-0.7072,-0.7074,-0.7074,-0.7077,-0.7064,-0.7059,-0.707,-0.707,-0.707,-0.707,-0.707,-0.707,-0.679,-0.6813,-0.6824,-0.6856,-0.6871,-0.6895,-0.6907,-0.6924,-0.694,-0.697,-0.6989,-0.7002,-0.7023,-0.7048,-0.707,-0.7075,-0.7084,-0.7084,-0.7091,-0.7079,-0.7078,-0.7077,-0.7072,-0.7086,-0.7086,-0.7103,-0.7103,-0.7103]}]]